Blackhead, Ireland
Current Conditions -  °F | °C
As of 10:00 AM on Wednesday 26 Nov 2014 (Local Time) from EINN Reporting Station
Light Fog Light Fog  
Wind Chill: 32°   Ceiling: Unl
Heat Index: 37°   Visibility: 6mi
Dew Point: 36°   Wind: 7mph
Humidity: 93%   Direction: 110°ESE
Pressure: 29.94"   Gusts: NA
Location:  53.17°N, 9.33°W
Report Text: EINN 261000Z 11006KT 9999 MIFG FEW038 03/02 Q1014 NOSIG
Loading
Personal Weather Stations






























Interactive Weather Map New forecast layout! Learn more

10-Day Weather Forecast

Advertisements
Track Severe Weather on mobile